{"data":{"norad_id":39761,"intl_designator":"2014-028A","name":"COSMOS 2496 (RODNIK-S *)","alt_names":[],"object_type":"PAYLOAD","status":"ACTIVE","operator":null,"country":"CIS","launch_date":"2014-05-23","launch_site_code":"PLMSC","launch_vehicle":null,"mission":null,"orbit_class":"UNKNOWN","rcs_meters":1.692,"size_class":null,"mass_kg":null,"dimensions":null,"purposes":[],"wikipedia_slug":null,"has_3d_model":false,"image_url":null,"decayed_at":null,"tle_current":{"epoch":"2026-05-25T05:48:37.937664Z","epoch_age_seconds":50140,"freshness":"FRESH","line1":"1 39761U 14028A   26145.24210576  .00000038  00000+0  20427-3 0  9994","line2":"2 39761  82.4430 123.1028 0020897 126.4855 233.8153 12.42877656544661","mean_motion":12.42877656,"eccentricity":0.0020897,"inclination_deg":82.443,"raan_deg":123.1028,"arg_perigee_deg":126.4855,"mean_anomaly_deg":233.8153,"bstar":0.00020427,"rev_number":54466,"period_min":115.86015671361,"perigee_km":1477.9766871252,"apogee_km":1510.8792852284,"semimajor_km":7872.5649861768,"source":"CELESTRAK","updated_at":"2026-05-25T13:37:55.437717Z"}}}